Location: Bothwell
(42.3833°S, 147.0000°E)
Time: 21:03:44
(UTC+10:00)

BlueWalker 3 - Visible Passes

Search period start: 24 September 2023 00:00
Search period end: 04 October 2023 01:00
Orbit: 492 x 508 km, 53.2° (Epoch: 23 September)

Date Brightness Start Highest point End Pass type
(mag) Time Alt. Az. Time Alt. Az. Time Alt. Az.
24 Sep 1.8 19:41:35 10° SW 19:45:30 90° NW 19:46:34 47° NE visible
25 Sep 1.9 19:20:05 10° SW 19:24:01 89° NW 19:26:15 24° NE visible
25 Sep 4.9 21:00:16 10° W 21:00:54 11° WNW 21:00:54 11° WNW visible
26 Sep 1.9 18:58:33 10° SW 19:02:30 88° NW 19:06:00 12° NE visible
26 Sep 4.6 20:38:46 10° W 20:40:23 12° NW 20:40:39 12° NW visible
27 Sep 2.0 18:37:02 10° SW 18:40:58 88° NW 18:44:50 10° NE visible
27 Sep 4.7 20:17:16 10° WNW 20:18:50 12° NW 20:20:25 10° NNW visible
28 Sep 4.7 19:55:46 10° WNW 19:57:18 12° NW 19:58:50 10° NNW visible
29 Sep 4.8 19:34:14 10° WNW 19:35:44 12° NW 19:37:15 10° NNW visible
30 Sep 4.9 19:12:41 10° WNW 19:14:10 12° NW 19:15:39 10° NNW visible
01 Oct 4.9 19:51:07 10° WNW 19:52:35 12° NW 19:54:02 10° NNW visible
